Hourly Weather Klasztor

Today, 25 July, Sunday

Time Temperature Precipitation Wind Pressure Humidity
00:00 +18°C° 0 mm 3 mps 746 mmHg 77%
01:00 +18°C° 0 mm 2 mps 746 mmHg 75%
02:00 +18°C° 0 mm 2 mps 746 mmHg 74%
03:00 +18°C° 0 mm 2 mps 746 mmHg 72%
04:00 +19°C° 0 mm 2 mps 746 mmHg 71%
05:00 +19°C° 0 mm 3 mps 746 mmHg 69%
06:00 +20°C° 0 mm 3 mps 746 mmHg 67%
07:00 +20°C° 0 mm 3 mps 746 mmHg 65%
08:00 +22°C° 0 mm 4 mps 746 mmHg 59%
09:00 +25°C° 0 mm 4 mps 746 mmHg 52%
10:00 +27°C° 0 mm 5 mps 746 mmHg 46%
11:00 +28°C° 0 mm 5 mps 745 mmHg 43%
12:00 +29°C° 0 mm 4 mps 745 mmHg 40%
13:00 +30°C° 0 mm 4 mps 745 mmHg 37%
14:00 +29°C° 0 mm 4 mps 745 mmHg 41%
15:00 +28°C° 0 mm 3 mps 745 mmHg 46%
16:00 +27°C° 0 mm 3 mps 745 mmHg 50%
17:00 +26°C° 0 mm 3 mps 745 mmHg 54%
18:00 +26°C° 0 mm 2 mps 745 mmHg 58%
19:00 +25°C° 0 mm 2 mps 745 mmHg 62%
20:00 +24°C° 0 mm 2 mps 745 mmHg 66%
21:00 +23°C° 0 mm 2 mps 745 mmHg 69%
22:00 +21°C° 0 mm 2 mps 745 mmHg 73%
23:00 +20°C° 0 mm 2 mps 745 mmHg 76%

Tomorrow, 26 July, Monday

Time Temperature Precipitation Wind Pressure Humidity
00:00 +19°C° 0 mm 2 mps 745 mmHg 79%
01:00 +19°C° 0 mm 2 mps 745 mmHg 82%
02:00 +19°C° 0 mm 2 mps 745 mmHg 82%
03:00 +18°C° 0 mm 2 mps 745 mmHg 83%
04:00 +18°C° 0 mm 2 mps 745 mmHg 84%
05:00 +19°C° 0 mm 3 mps 745 mmHg 76%
06:00 +21°C° 0 mm 3 mps 745 mmHg 69%
07:00 +24°C° 0 mm 3 mps 745 mmHg 61%
08:00 +24°C° 0 mm 3 mps 745 mmHg 59%
09:00 +25°C° 0 mm 4 mps 745 mmHg 56%
10:00 +26°C° 0 mm 4 mps 745 mmHg 54%
11:00 +26°C° 0 mm 4 mps 745 mmHg 54%
12:00 +26°C° 0 mm 4 mps 745 mmHg 55%
13:00 +26°C° 0 mm 3 mps 745 mmHg 55%
14:00 +27°C° 0.1 mm 3 mps 745 mmHg 54%
15:00 +27°C° 0.1 mm 3 mps 744 mmHg 54%
16:00 +28°C° 0.1 mm 3 mps 744 mmHg 54%
17:00 +26°C° 0.2 mm 2 mps 744 mmHg 62%
18:00 +25°C° 0.2 mm 2 mps 744 mmHg 69%
19:00 +24°C° 0.2 mm 2 mps 744 mmHg 77%
20:00 +23°C° 0 mm 2 mps 743 mmHg 81%
21:00 +21°C° 0 mm 2 mps 743 mmHg 85%
22:00 +21°C° 0 mm 1 mps 743 mmHg 89%
23:00 +21°C° 0 mm 1 mps 743 mmHg 91%

Day after tomorrow, 27 July, Tuesday

Time Temperature Precipitation Wind Pressure Humidity
00:00 +20°C° 0 mm 1 mps 743 mmHg 93%
01:00 +20°C° 0 mm 1 mps 743 mmHg 95%
02:00 +20°C° 0 mm 1 mps 743 mmHg 94%
03:00 +19°C° 0 mm 1 mps 743 mmHg 94%
04:00 +19°C° 0 mm 1 mps 743 mmHg 94%
05:00 +20°C° 0 mm 1 mps 743 mmHg 88%
06:00 +21°C° 0 mm 2 mps 743 mmHg 83%
07:00 +23°C° 0 mm 2 mps 744 mmHg 77%
08:00 +25°C° 0 mm 2 mps 744 mmHg 69%
09:00 +26°C° 0 mm 3 mps 744 mmHg 61%
10:00 +28°C° 0 mm 3 mps 744 mmHg 53%
11:00 +28°C° 0.4 mm 3 mps 744 mmHg 54%
12:00 +28°C° 0.4 mm 3 mps 744 mmHg 54%
13:00 +28°C° 0.4 mm 4 mps 744 mmHg 55%
14:00 +27°C° 0.1 mm 4 mps 744 mmHg 57%
15:00 +27°C° 0.1 mm 4 mps 744 mmHg 60%
16:00 +26°C° 0.1 mm 4 mps 744 mmHg 62%
17:00 +25°C° 0.1 mm 3 mps 744 mmHg 66%
18:00 +24°C° 0.1 mm 3 mps 744 mmHg 71%
19:00 +23°C° 0.1 mm 2 mps 744 mmHg 75%
20:00 +22°C° 0 mm 1 mps 744 mmHg 79%
21:00 +21°C° 0 mm 1 mps 745 mmHg 82%
22:00 +20°C° 0 mm 1 mps 745 mmHg 86%
23:00 +20°C° 0 mm 1 mps 745 mmHg 87%

28 July, Wednesday

Time Temperature Precipitation Wind Pressure Humidity
00:00 +19°C° 0 mm 1 mps 744 mmHg 87%
01:00 +18°C° 0 mm 2 mps 744 mmHg 88%
02:00 +18°C° 0 mm 2 mps 744 mmHg 90%
03:00 +18°C° 0 mm 2 mps 744 mmHg 91%
04:00 +18°C° 0 mm 1 mps 744 mmHg 92%
05:00 +19°C° 0 mm 2 mps 744 mmHg 83%
06:00 +21°C° 0 mm 2 mps 744 mmHg 75%
07:00 +22°C° 0 mm 3 mps 744 mmHg 66%
08:00 +25°C° 0 mm 3 mps 744 mmHg 58%
09:00 +26°C° 0 mm 4 mps 744 mmHg 51%
10:00 +28°C° 0 mm 4 mps 744 mmHg 43%
11:00 +28°C° 0 mm 4 mps 744 mmHg 43%
12:00 +28°C° 0 mm 4 mps 744 mmHg 44%
13:00 +27°C° 0 mm 4 mps 744 mmHg 44%
14:00 +27°C° 0 mm 3 mps 744 mmHg 45%
15:00 +27°C° 0 mm 3 mps 744 mmHg 46%
16:00 +27°C° 0 mm 3 mps 744 mmHg 47%
17:00 +25°C° 0.1 mm 3 mps 744 mmHg 54%
18:00 +22°C° 0.1 mm 3 mps 744 mmHg 61%
19:00 +21°C° 0.1 mm 2 mps 744 mmHg 68%
20:00 +20°C° 0 mm 2 mps 745 mmHg 73%
21:00 +18°C° 0 mm 2 mps 745 mmHg 78%
22:00 +17°C° 0 mm 2 mps 745 mmHg 83%
23:00 +17°C° 0 mm 2 mps 745 mmHg 84%

29 July, Thursday

Time Temperature Precipitation Wind Pressure Humidity
00:00 +16°C° 0 mm 2 mps 745 mmHg 86%
01:00 +16°C° 0 mm 2 mps 745 mmHg 88%
02:00 +15°C° 0 mm 2 mps 745 mmHg 89%
03:00 +15°C° 0 mm 2 mps 745 mmHg 91%
04:00 +15°C° 0 mm 2 mps 745 mmHg 92%
05:00 +17°C° 0 mm 2 mps 746 mmHg 84%
06:00 +18°C° 0 mm 2 mps 746 mmHg 76%
07:00 +20°C° 0 mm 2 mps 746 mmHg 69%
08:00 +22°C° 0 mm 3 mps 746 mmHg 61%
09:00 +24°C° 0 mm 3 mps 746 mmHg 53%
10:00 +26°C° 0 mm 3 mps 746 mmHg 45%
11:00 +27°C° 0 mm 3 mps 746 mmHg 42%
12:00 +28°C° 0 mm 3 mps 745 mmHg 39%
13:00 +28°C° 0 mm 4 mps 745 mmHg 37%
14:00 +28°C° 0 mm 3 mps 745 mmHg 41%
15:00 +27°C° 0 mm 3 mps 745 mmHg 45%
16:00 +26°C° 0 mm 2 mps 745 mmHg 50%
17:00 +25°C° 0 mm 2 mps 744 mmHg 54%
18:00 +24°C° 0 mm 1 mps 744 mmHg 58%
19:00 +23°C° 0 mm 1 mps 744 mmHg 61%
20:00 +23°C° 0 mm 1 mps 744 mmHg 62%
21:00 +22°C° 0 mm 1 mps 744 mmHg 63%
22:00 +22°C° 0 mm 1 mps 744 mmHg 64%
23:00 +22°C° 0 mm 1 mps 743 mmHg 66%

30 July, Friday

Time Temperature Precipitation Wind Pressure Humidity
00:00 +21°C° 0 mm 1 mps 743 mmHg 68%
01:00 +21°C° 0 mm 1 mps 743 mmHg 69%
02:00 +21°C° 0 mm 1 mps 743 mmHg 69%
03:00 +20°C° 0 mm 2 mps 743 mmHg 68%
04:00 +20°C° 0 mm 2 mps 742 mmHg 67%
05:00 +21°C° 0 mm 2 mps 742 mmHg 64%
06:00 +21°C° 0 mm 2 mps 742 mmHg 62%
07:00 +22°C° 0 mm 3 mps 742 mmHg 59%
08:00 +25°C° 0 mm 4 mps 741 mmHg 56%
09:00 +26°C° 0 mm 4 mps 741 mmHg 53%
10:00 +27°C° 0 mm 5 mps 741 mmHg 50%
11:00 +27°C° 0.3 mm 5 mps 741 mmHg 54%
12:00 +27°C° 0.3 mm 5 mps 740 mmHg 59%
13:00 +26°C° 0.3 mm 4 mps 740 mmHg 64%
14:00 +26°C° 0.4 mm 4 mps 740 mmHg 63%
15:00 +25°C° 0.4 mm 4 mps 740 mmHg 62%
16:00 +25°C° 0.4 mm 4 mps 740 mmHg 62%
17:00 +23°C° 0.1 mm 4 mps 740 mmHg 65%
18:00 +22°C° 0.1 mm 3 mps 741 mmHg 68%
19:00 +21°C° 0.1 mm 3 mps 741 mmHg 71%
20:00 +19°C° 0 mm 2 mps 741 mmHg 77%
21:00 +18°C° 0 mm 2 mps 741 mmHg 83%
22:00 +16°C° 0 mm 1 mps 741 mmHg 89%
23:00 +16°C° 0 mm 1 mps 741 mmHg 90%
Show more